Station Historical Data
Daily Summary for August 19, 2017 Units:  Metric    English   Both
« Previous Day
Next Day »
Daily Weekly Monthly Yearly Custom
  High: Low: Average:
Temperature: 31.8 °C 19.7 °C 25.4 °C
Dew Point: 20.4 °C 15.3 °C 18.8 °C
Humidity: 90% 39% 69%
Wind Speed: 1.6km/h 0km/h 0km/h
Wind Gust: 8km/h - -
Wind- - SW
Pressure: 1016.8 hPa 1014.1 hPa -
Precipitation: 0 mm    
Historical Graphs
 
 
Tabular Data for August 19, 2017
Time Temperature Dew Point Pressure Wind Wind Speed Wind Gust Humidity Rainfall Rate (Hourly) Conditions
00:00 22.7 °C 19.3 °C 1014.8 hPa Calm     81% 0 mm CLR
00:05 22.7 °C 19.2 °C 1014.8 hPa Calm     81% 0 mm CLR
00:10 22.6 °C 19.4 °C 1014.8 hPa Calm     82% 0 mm CLR
00:15 22.6 °C 19.3 °C 1014.8 hPa Calm     82% 0 mm CLR
00:20 22.6 °C 19.3 °C 1014.8 hPa Calm     82% 0 mm CLR
00:25 22.5 °C 19.4 °C 1014.8 hPa Calm     83% 0 mm CLR
00:30 22.4 °C 19.4 °C 1014.8 hPa Calm     83% 0 mm CLR
00:40 22.3 °C 19.3 °C 1014.8 hPa Calm     83% 0 mm CLR
00:45 22.3 °C 19.2 °C 1014.8 hPa Calm     83% 0 mm CLR
00:55 22.2 °C 19.1 °C 1014.8 hPa Calm     83% 0 mm CLR
01:00 22.1 °C 19.1 °C 1014.8 hPa Calm     83% 0 mm CLR
01:05 22.1 °C 19.1 °C 1014.8 hPa Calm     83% 0 mm CLR
01:10 22 °C 19 °C 1014.8 hPa Calm     83% 0 mm CLR
01:20 21.9 °C 19.1 °C 1015.1 hPa Calm     84% 0 mm CLR
01:25 21.9 °C 19.1 °C 1015.1 hPa Calm     84% 0 mm CLR
01:35 21.8 °C 19 °C 1015.1 hPa Calm     84% 0 mm CLR
01:40 21.8 °C 19 °C 1015.1 hPa Calm     84% 0 mm CLR
01:45 21.8 °C 18.9 °C 1015.1 hPa Calm     84% 0 mm CLR
01:50 21.7 °C 18.9 °C 1015.1 hPa Calm     84% 0 mm CLR
01:55 21.7 °C 18.9 °C 1015.1 hPa Calm     84% 0 mm CLR
02:00 21.7 °C 18.8 °C 1015.1 hPa Calm     84% 0 mm CLR
02:10 21.6 °C 18.8 °C 1015.1 hPa Calm     84% 0 mm CLR
02:15 21.6 °C 18.8 °C 1015.1 hPa Calm     84% 0 mm CLR
02:20 21.6 °C 18.8 °C 1015.1 hPa Calm     84% 0 mm CLR
02:25 21.6 °C 18.6 °C 1014.8 hPa Calm     83% 0 mm CLR
02:30 21.7 °C 18.8 °C 1014.8 hPa Calm     84% 0 mm CLR
02:40 21.7 °C 18.7 °C 1014.8 hPa Calm     83% 0 mm CLR
02:45 21.7 °C 18.7 °C 1014.8 hPa Calm     83% 0 mm CLR
02:50 21.7 °C 18.7 °C 1014.8 hPa Calm     83% 0 mm CLR
02:55 21.7 °C 18.7 °C 1014.8 hPa Calm     83% 0 mm CLR
03:00 21.7 °C 18.7 °C 1014.8 hPa Calm     83% 0 mm CLR
03:05 21.8 °C 18.7 °C 1014.8 hPa Calm     83% 0 mm CLR
03:10 21.8 °C 18.6 °C 1014.8 hPa Calm     82% 0 mm CLR
03:15 21.7 °C 18.7 °C 1014.8 hPa Calm     83% 0 mm CLR
03:20 21.7 °C 18.7 °C 1014.8 hPa Calm     83% 0 mm CLR
03:25 21.7 °C 18.7 °C 1014.4 hPa Calm     83% 0 mm CLR
03:30 21.6 °C 18.6 °C 1014.4 hPa Calm     83% 0 mm CLR
03:35 21.6 °C 18.6 °C 1014.4 hPa Calm     83% 0 mm CLR
03:40 21.5 °C 18.5 °C 1014.4 hPa Calm     83% 0 mm CLR
03:45 21.4 °C 18.4 °C 1014.4 hPa Calm     83% 0 mm CLR
03:50 21.3 °C 18.5 °C 1014.4 hPa Calm     84% 0 mm CLR
03:55 21.2 °C 18.4 °C 1014.4 hPa Calm     84% 0 mm CLR
04:00 21.2 °C 18.5 °C 1014.4 hPa Calm     85% 0 mm CLR
04:05 21.1 °C 18.4 °C 1014.8 hPa Calm     85% 0 mm CLR
04:10 20.9 °C 18.3 °C 1014.8 hPa Calm     85% 0 mm CLR
04:15 20.9 °C 18.3 °C 1014.8 hPa Calm     85% 0 mm CLR
04:20 20.8 °C 18.3 °C 1014.8 hPa Calm     86% 0 mm CLR
04:25 20.8 °C 18.3 °C 1014.8 hPa Calm     86% 0 mm CLR
04:30 20.7 °C 18.3 °C 1014.8 hPa Calm     86% 0 mm CLR
04:40 20.7 °C 18.4 °C 1014.8 hPa Calm     87% 0 mm CLR
04:45 20.7 °C 18.4 °C 1014.8 hPa Calm     87% 0 mm CLR
04:50 20.7 °C 18.4 °C 1014.8 hPa Calm     87% 0 mm CLR
05:00 20.8 °C 18.3 °C 1014.8 hPa Calm     86% 0 mm CLR
05:05 20.8 °C 18.4 °C 1014.8 hPa Calm     86% 0 mm CLR
05:10 20.8 °C 18.4 °C 1014.8 hPa Calm     86% 0 mm CLR
05:20 20.8 °C 18.4 °C 1014.8 hPa Calm     86% 0 mm CLR
05:25 20.8 °C 18.4 °C 1015.1 hPa Calm     86% 0 mm CLR
05:30 20.8 °C 18.4 °C 1015.1 hPa Calm     86% 0 mm CLR
05:35 20.8 °C 18.3 °C 1015.1 hPa Calm     86% 0 mm CLR
05:40 20.7 °C 18.3 °C 1015.1 hPa Calm     86% 0 mm CLR
05:45 20.6 °C 18.2 °C 1015.1 hPa Calm     86% 0 mm CLR
05:50 20.5 °C 18.1 °C 1015.1 hPa Calm     86% 0 mm CLR
05:55 20.4 °C 18.2 °C 1015.1 hPa Calm     87% 0 mm CLR
06:00 20.3 °C 18.1 °C 1015.1 hPa Calm     87% 0 mm CLR
06:10 20.2 °C 17.9 °C 1015.1 hPa Calm     87% 0 mm CLR
06:15 20.1 °C 18.1 °C 1015.1 hPa Calm     88% 0 mm CLR
06:20 20.1 °C 18 °C 1015.1 hPa Calm     88% 0 mm CLR
06:25 20 °C 17.9 °C 1015.5 hPa Calm     88% 0 mm CLR
06:30 20 °C 17.9 °C 1015.5 hPa Calm     88% 0 mm CLR
06:40 19.9 °C 17.9 °C 1015.1 hPa Calm     88% 0 mm CLR
06:45 19.9 °C 17.8 °C 1015.5 hPa Calm     88% 0 mm CLR
06:50 19.8 °C 17.9 °C 1015.5 hPa Calm     89% 0 mm CLR
06:55 19.8 °C 17.9 °C 1015.5 hPa Calm     89% 0 mm CLR
07:00 19.7 °C 17.8 °C 1015.5 hPa Calm     89% 0 mm CLR
07:05 19.7 °C 17.8 °C 1015.5 hPa Calm     89% 0 mm CLR
07:10 19.7 °C 17.8 °C 1015.1 hPa Calm     89% 0 mm CLR
07:15 19.7 °C 17.8 °C 1015.1 hPa Calm     89% 0 mm CLR
07:20 19.7 °C 18 °C 1015.5 hPa Calm     90% 0 mm SCT
07:25 19.7 °C 17.8 °C 1015.1 hPa Calm     89% 0 mm SCT
07:30 19.7 °C 17.8 °C 1015.1 hPa Calm     89% 0 mm SCT
07:35 19.7 °C 17.8 °C 1015.1 hPa Calm     89% 0 mm SCT
07:40 19.7 °C 18.1 °C 1015.1 hPa Calm     90% 0 mm SCT
07:45 19.8 °C 18.1 °C 1015.1 hPa Calm     90% 0 mm SCT
07:50 19.8 °C 18.2 °C 1015.1 hPa Calm     90% 0 mm SCT
07:55 19.9 °C 18.2 °C 1015.1 hPa Calm     90% 0 mm SCT
08:00 19.9 °C 18.3 °C 1015.1 hPa Calm     90% 0 mm SCT
08:05 20.1 °C 18.4 °C 1015.5 hPa Calm     90% 0 mm SCT
08:10 20.2 °C 18.3 °C 1015.5 hPa Calm     89% 0 mm SCT
08:15 20.3 °C 18.4 °C 1015.5 hPa Calm     89% 0 mm SCT
08:20 20.5 °C 18.6 °C 1015.5 hPa Calm     89% 0 mm SCT
08:30 20.9 °C 19 °C 1015.5 hPa Calm     89% 0 mm SCT
08:40 21.2 °C 19.2 °C 1015.5 hPa Calm     88% 0 mm SCT
08:45 21.4 °C 19.2 °C 1015.5 hPa Calm     87% 0 mm SCT
08:50 21.6 °C 19.2 °C 1015.5 hPa Calm     86% 0 mm SCT
08:55 21.8 °C 19.4 °C 1015.5 hPa Calm     86% 0 mm SCT
09:00 22 °C 19.4 °C 1015.8 hPa Calm     85% 0 mm SCT
09:05 22.3 °C 19.7 °C 1015.5 hPa Calm     85% 0 mm SCT
09:10 22.6 °C 19.5 °C 1015.5 hPa Calm   3.2 km/h 83% 0 mm SCT
09:15 22.8 °C 19.8 °C 1015.8 hPa Calm     83% 0 mm SCT
09:20 23.1 °C 19.8 °C 1015.8 hPa Calm   1.6 km/h 82% 0 mm FEW
09:25 23.3 °C 19.9 °C 1015.8 hPa Calm   1.6 km/h 81% 0 mm FEW
09:30 23.6 °C 20.1 °C 1015.8 hPa Calm   3.2 km/h 81% 0 mm FEW
09:35 23.7 °C 19.9 °C 1015.8 hPa SW 1.6 km/h 3.2 km/h 79% 0 mm FEW
09:40 23.8 °C 19.9 °C 1015.8 hPa Calm   3.2 km/h 79% 0 mm FEW
09:45 24 °C 19.9 °C 1015.8 hPa WSW 1.6 km/h 3.2 km/h 78% 0 mm FEW
09:50 24.2 °C 19.9 °C 1015.8 hPa Calm   1.6 km/h 77% 0 mm FEW
09:55 24.4 °C 20.1 °C 1016.1 hPa Calm   1.6 km/h 77% 0 mm FEW
10:00 24.7 °C 20.2 °C 1016.1 hPa Calm   1.6 km/h 76% 0 mm FEW
10:05 25.1 °C 20.3 °C 1016.1 hPa Calm   1.6 km/h 75% 0 mm FEW
10:10 25.4 °C 20.4 °C 1016.1 hPa Calm   1.6 km/h 74% 0 mm FEW
10:15 25.6 °C 20.2 °C 1016.1 hPa Calm   1.6 km/h 72% 0 mm FEW
10:20 25.8 °C 20.3 °C 1016.1 hPa Calm   3.2 km/h 72% 0 mm FEW
10:25 25.9 °C 20.3 °C 1016.1 hPa SSW 1.6 km/h 3.2 km/h 71% 0 mm FEW
10:30 26.1 °C 20.2 °C 1016.5 hPa Calm   1.6 km/h 70% 0 mm FEW
10:35 26.2 °C 20.3 °C 1016.5 hPa West 1.6 km/h 3.2 km/h 70% 0 mm FEW
10:40 26.2 °C 19.8 °C 1016.5 hPa Calm   4.8 km/h 68% 0 mm FEW
10:45 26.3 °C 20.1 °C 1016.5 hPa Calm   1.6 km/h 69% 0 mm FEW
10:50 26.3 °C 20 °C 1016.5 hPa Calm   1.6 km/h 68% 0 mm FEW
10:55 26.4 °C 19.6 °C 1016.5 hPa Calm   4.8 km/h 66% 0 mm FEW
11:00 26.5 °C 19.6 °C 1016.5 hPa Calm   1.6 km/h 66% 0 mm FEW
11:05 26.7 °C 20.2 °C 1016.5 hPa Calm     68% 0 mm FEW
11:10 26.7 °C 20.1 °C 1016.5 hPa Calm   1.6 km/h 67% 0 mm FEW
11:15 26.8 °C 19.2 °C 1016.5 hPa Calm   1.6 km/h 63% 0 mm FEW
11:20 26.9 °C 19.8 °C 1016.5 hPa Calm   4.8 km/h 65% 0 mm FEW
11:25 27 °C 19.3 °C 1016.5 hPa SE 1.6 km/h 4.8 km/h 63% 0 mm FEW
11:30 27.1 °C 19.2 °C 1016.5 hPa ESE 1.6 km/h 4.8 km/h 62% 0 mm FEW
11:35 27.1 °C 19.2 °C 1016.5 hPa WNW 1.6 km/h 3.2 km/h 62% 0 mm FEW
11:40 27.2 °C 18.4 °C 1016.5 hPa Calm   3.2 km/h 59% 0 mm FEW
11:45 27.3 °C 19.1 °C 1016.5 hPa Calm   1.6 km/h 61% 0 mm FEW
11:50 27.6 °C 19.3 °C 1016.5 hPa Calm   1.6 km/h 61% 0 mm FEW
11:55 27.8 °C 19.1 °C 1016.5 hPa West 1.6 km/h 4.8 km/h 59% 0 mm FEW
12:00 27.8 °C 18.8 °C 1016.5 hPa Calm   4.8 km/h 58% 0 mm FEW
12:10 28.1 °C 18.4 °C 1016.5 hPa Calm   3.2 km/h 56% 0 mm FEW
12:15 28.4 °C 18.8 °C 1016.8 hPa Calm   1.6 km/h 56% 0 mm FEW
12:20 28.8 °C 19.4 °C 1016.5 hPa Calm   1.6 km/h 57% 0 mm FEW
12:25 29.1 °C 18.3 °C 1016.5 hPa Calm   3.2 km/h 52% 0 mm FEW
12:30 29.1 °C 18.2 °C 1016.5 hPa Calm   3.2 km/h 52% 0 mm FEW
12:35 29.4 °C 19.1 °C 1016.5 hPa West 1.6 km/h 4.8 km/h 54% 0 mm FEW
12:40 29.6 °C 18.4 °C 1016.5 hPa Calm   1.6 km/h 51% 0 mm FEW
12:45 29.8 °C 19.5 °C 1016.5 hPa Calm   1.6 km/h 54% 0 mm FEW
12:50 30.1 °C 18.2 °C 1016.5 hPa Calm   3.2 km/h 49% 0 mm FEW
12:55 30.3 °C 19.1 °C 1016.5 hPa Calm     51% 0 mm FEW
13:00 30.7 °C 18.8 °C 1016.5 hPa Calm   3.2 km/h 49% 0 mm FEW
13:05 30.5 °C 18.6 °C 1016.5 hPa Calm   3.2 km/h 49% 0 mm FEW
13:10 30.3 °C 18.7 °C 1016.5 hPa Calm   1.6 km/h 50% 0 mm FEW
13:15 30.5 °C 18.6 °C 1016.1 hPa Calm   3.2 km/h 49% 0 mm FEW
13:20 30.7 °C 18.7 °C 1016.1 hPa Calm   8 km/h 49% 0 mm FEW
13:25 31.1 °C 18.4 °C 1016.1 hPa Calm     47% 0 mm FEW
13:30 31.4 °C 18.7 °C 1016.1 hPa Calm   1.6 km/h 47% 0 mm FEW
13:35 31.7 °C 19.3 °C 1016.1 hPa Calm   1.6 km/h 48% 0 mm FEW
13:40 31.8 °C 18.8 °C 1015.8 hPa WSW 1.6 km/h 3.2 km/h 46% 0 mm FEW
13:45 31.3 °C 17.6 °C 1015.8 hPa Calm   3.2 km/h 44% 0 mm FEW
13:50 31.2 °C 18.5 °C 1015.8 hPa Calm   3.2 km/h 47% 0 mm FEW
13:55 31.2 °C 18.6 °C 1015.8 hPa North 1.6 km/h 4.8 km/h 47% 0 mm FEW
14:00 31.2 °C 18.6 °C 1015.8 hPa Calm   3.2 km/h 47% 0 mm FEW
14:05 31.6 °C 18.2 °C 1015.8 hPa Calm   1.6 km/h 45% 0 mm FEW
14:10 31.7 °C 18.7 °C 1015.8 hPa NW 1.6 km/h 3.2 km/h 46% 0 mm FEW
14:15 31.6 °C 17.8 °C 1015.8 hPa Calm   3.2 km/h 44% 0 mm FEW
14:20 31.6 °C 18.2 °C 1015.8 hPa Calm   1.6 km/h 45% 0 mm FEW
14:25 31.5 °C 17.4 °C 1015.5 hPa Calm   4.8 km/h 43% 0 mm FEW
14:30 31.4 °C 18.1 °C 1015.5 hPa Calm   1.6 km/h 45% 0 mm FEW
14:35 31.4 °C 16.9 °C 1015.5 hPa Calm   1.6 km/h 42% 0 mm FEW
14:40 31.3 °C 18 °C 1015.5 hPa Calm   1.6 km/h 45% 0 mm FEW
14:45 31.2 °C 17.5 °C 1015.5 hPa Calm   1.6 km/h 44% 0 mm FEW
14:50 31.1 °C 17.4 °C 1015.5 hPa Calm   1.6 km/h 44% 0 mm FEW
14:55 31 °C 18.1 °C 1015.1 hPa Calm   1.6 km/h 46% 0 mm FEW
15:00 30.9 °C 17.2 °C 1015.1 hPa Calm   1.6 km/h 44% 0 mm FEW
15:05 30.9 °C 17.9 °C 1015.1 hPa Calm   1.6 km/h 46% 0 mm FEW
15:15 31.1 °C 17 °C 1015.1 hPa Calm   1.6 km/h 43% 0 mm FEW
15:20 31.1 °C 17.3 °C 1015.1 hPa Calm   3.2 km/h 44% 0 mm FEW
15:25 30.9 °C 17.6 °C 1015.1 hPa Calm   1.6 km/h 45% 0 mm FEW
15:30 30.8 °C 16.4 °C 1014.8 hPa Calm   1.6 km/h 42% 0 mm FEW
15:35 30.7 °C 17.1 °C 1014.8 hPa Calm   1.6 km/h 44% 0 mm FEW
15:40 30.7 °C 16.3 °C 1014.8 hPa Calm   1.6 km/h 42% 0 mm FEW
15:45 30.8 °C 16 °C 1014.8 hPa Calm   1.6 km/h 41% 0 mm FEW
15:50 31 °C 16.6 °C 1014.8 hPa Calm   3.2 km/h 42% 0 mm FEW
15:55 30.9 °C 16.6 °C 1014.8 hPa Calm   3.2 km/h 42% 0 mm FEW
16:05 30.9 °C 17.2 °C 1014.8 hPa Calm   1.6 km/h 44% 0 mm FEW
16:15 30.9 °C 16.8 °C 1014.4 hPa Calm   3.2 km/h 43% 0 mm FEW
16:20 30.8 °C 15.3 °C 1014.4 hPa Calm   3.2 km/h 39% 0 mm SCT
16:25 30.8 °C 16.1 °C 1014.4 hPa Calm   1.6 km/h 41% 0 mm SCT
16:30 30.8 °C 16 °C 1014.4 hPa Calm   1.6 km/h 41% 0 mm SCT
16:35 30.8 °C 16 °C 1014.4 hPa Calm   1.6 km/h 41% 0 mm SCT
16:40 30.8 °C 17.5 °C 1014.4 hPa Calm     45% 0 mm SCT
16:45 30.8 °C 17.5 °C 1014.4 hPa Calm     45% 0 mm SCT
16:50 30.7 °C 16.7 °C 1014.1 hPa Calm   1.6 km/h 43% 0 mm SCT
16:55 30.8 °C 17.5 °C 1014.1 hPa Calm   1.6 km/h 45% 0 mm SCT
17:00 30.8 °C 18.2 °C 1014.1 hPa Calm   1.6 km/h 47% 0 mm SCT
17:05 30.8 °C 17.9 °C 1014.1 hPa Calm   1.6 km/h 46% 0 mm SCT
17:10 30.9 °C 17.6 °C 1014.1 hPa Calm   1.6 km/h 45% 0 mm SCT
17:15 31.1 °C 18.8 °C 1014.1 hPa Calm   1.6 km/h 48% 0 mm SCT
17:20 31.1 °C 18.7 °C 1014.1 hPa Calm   3.2 km/h 48% 0 mm SCT
17:25 31.2 °C 18.6 °C 1014.1 hPa Calm   1.6 km/h 47% 0 mm SCT
17:30 31.3 °C 18.3 °C 1014.4 hPa Calm   1.6 km/h 46% 0 mm SCT
17:35 31.2 °C 18.2 °C 1014.4 hPa Calm   8 km/h 46% 0 mm SCT
17:40 31.1 °C 18.1 °C 1014.4 hPa Calm   1.6 km/h 46% 0 mm SCT
17:45 31.1 °C 18.4 °C 1014.4 hPa Calm   1.6 km/h 47% 0 mm SCT
17:50 30.9 °C 18 °C 1014.4 hPa Calm   1.6 km/h 46% 0 mm SCT
17:55 30.8 °C 18.2 °C 1014.4 hPa Calm   1.6 km/h 47% 0 mm SCT
18:00 30.6 °C 17.7 °C 1014.4 hPa Calm   1.6 km/h 46% 0 mm SCT
18:05 30.5 °C 18.2 °C 1014.4 hPa Calm   1.6 km/h 48% 0 mm SCT
18:10 30.3 °C 17.7 °C 1014.4 hPa Calm   1.6 km/h 47% 0 mm SCT
18:15 30.1 °C 18.2 °C 1014.1 hPa Calm     49% 0 mm SCT
18:20 29.9 °C 18.1 °C 1014.1 hPa Calm   1.6 km/h 49% 0 mm SCT
18:25 29.7 °C 18.1 °C 1014.1 hPa Calm   1.6 km/h 50% 0 mm SCT
18:30 29.5 °C 18.6 °C 1014.1 hPa Calm     52% 0 mm SCT
18:35 29.4 °C 18.8 °C 1014.1 hPa Calm   8 km/h 53% 0 mm SCT
18:40 29.4 °C 19.1 °C 1014.1 hPa Calm   1.6 km/h 54% 0 mm SCT
18:45 29.3 °C 19.6 °C 1014.1 hPa Calm   3.2 km/h 56% 0 mm SCT
18:50 29.2 °C 19.5 °C 1014.1 hPa Calm   1.6 km/h 56% 0 mm SCT
18:55 28.9 °C 19.6 °C 1014.1 hPa Calm   1.6 km/h 57% 0 mm SCT
19:00 28.8 °C 19.7 °C 1014.1 hPa Calm   1.6 km/h 58% 0 mm SCT
19:05 28.7 °C 20.1 °C 1014.1 hPa Calm     60% 0 mm SCT
19:10 28.4 °C 20.2 °C 1014.1 hPa Calm   1.6 km/h 61% 0 mm SCT
19:15 28.3 °C 20.1 °C 1014.1 hPa Calm   1.6 km/h 61% 0 mm SCT
19:20 28.2 °C 20.2 °C 1014.1 hPa Calm     62% 0 mm SCT
19:25 28.1 °C 20.1 °C 1014.1 hPa Calm   1.6 km/h 62% 0 mm SCT
19:30 27.9 °C 20.2 °C 1014.4 hPa Calm     63% 0 mm SCT
19:35 27.8 °C 20.1 °C 1014.4 hPa Calm   1.6 km/h 63% 0 mm SCT
19:40 27.7 °C 20.2 °C 1014.4 hPa Calm   1.6 km/h 64% 0 mm SCT
19:45 27.6 °C 20.1 °C 1014.4 hPa Calm   1.6 km/h 64% 0 mm SCT
19:50 27.4 °C 20.1 °C 1014.4 hPa Calm     64% 0 mm SCT
19:55 27.3 °C 19.9 °C 1014.4 hPa Calm     64% 0 mm SCT
20:00 27.2 °C 20.1 °C 1014.4 hPa Calm     65% 0 mm SCT
20:05 27.1 °C 19.9 °C 1014.4 hPa Calm     65% 0 mm SCT
20:10 27 °C 19.8 °C 1014.4 hPa Calm     65% 0 mm SCT
20:15 26.8 °C 19.9 °C 1014.8 hPa Calm     66% 0 mm SCT
20:20 26.7 °C 20.1 °C 1014.8 hPa Calm     67% 0 mm SCT
20:30 26.6 °C 20 °C 1014.8 hPa Calm     67% 0 mm SCT
20:35 26.5 °C 19.9 °C 1014.8 hPa Calm     67% 0 mm SCT
20:40 26.3 °C 19.9 °C 1014.8 hPa Calm     68% 0 mm SCT
20:45 26.2 °C 20.1 °C 1015.1 hPa Calm     69% 0 mm SCT
20:50 26.1 °C 19.9 °C 1015.1 hPa Calm     69% 0 mm SCT
20:55 25.9 °C 20 °C 1015.1 hPa Calm     70% 0 mm SCT
21:00 25.8 °C 19.9 °C 1015.1 hPa Calm     70% 0 mm SCT
21:05 25.6 °C 19.7 °C 1015.1 hPa Calm     70% 0 mm SCT
21:10 25.5 °C 19.6 °C 1015.5 hPa Calm     70% 0 mm SCT
21:15 25.4 °C 19.7 °C 1015.5 hPa Calm     71% 0 mm SCT
21:25 25.1 °C 19.7 °C 1015.5 hPa Calm     72% 0 mm SCT
21:30 25.1 °C 19.8 °C 1015.5 hPa Calm     73% 0 mm SCT
21:35 24.9 °C 20 °C 1015.8 hPa Calm     74% 0 mm SCT
21:40 24.8 °C 19.7 °C 1015.8 hPa Calm     73% 0 mm SCT
21:45 24.7 °C 19.6 °C 1015.8 hPa Calm     73% 0 mm SCT
21:55 24.6 °C 19.6 °C 1015.8 hPa Calm     74% 0 mm SCT
22:00 24.5 °C 19.6 °C 1015.8 hPa Calm     74% 0 mm SCT
22:05 24.4 °C 19.5 °C 1015.8 hPa Calm     74% 0 mm SCT
22:10 24.4 °C 19.7 °C 1015.8 hPa Calm     75% 0 mm SCT
22:15 24.3 °C 19.6 °C 1015.8 hPa Calm     75% 0 mm SCT
22:20 24.3 °C 20.1 °C 1016.1 hPa Calm     77% 0 mm FEW
22:25 24.3 °C 20 °C 1016.1 hPa Calm     77% 0 mm FEW
22:30 24.2 °C 20.3 °C 1016.1 hPa Calm     79% 0 mm FEW
22:35 24.1 °C 20.1 °C 1016.5 hPa Calm     78% 0 mm FEW
22:40 24.1 °C 20.2 °C 1016.5 hPa Calm     79% 0 mm FEW
22:45 24 °C 20.1 °C 1016.5 hPa Calm     79% 0 mm FEW
22:50 23.9 °C 19.9 °C 1016.5 hPa Calm     78% 0 mm FEW
22:55 23.9 °C 19.9 °C 1016.5 hPa Calm     78% 0 mm FEW
23:00 23.9 °C 19.9 °C 1016.5 hPa Calm     78% 0 mm FEW
23:05 24.3 °C 20 °C 1016.5 hPa Calm   1.6 km/h 77% 0 mm FEW
23:10 24.6 °C 20.3 °C 1016.5 hPa Calm     77% 0 mm FEW
23:20 24.3 °C 20.4 °C 1016.5 hPa Calm     79% 0 mm CLR
23:25 24.2 °C 20.3 °C 1016.5 hPa Calm     79% 0 mm CLR
23:30 24 °C 20.3 °C 1016.5 hPa Calm     80% 0 mm CLR
23:35 23.8 °C 20.1 °C 1016.5 hPa Calm     80% 0 mm CLR
23:40 23.6 °C 20.2 °C 1016.5 hPa Calm     81% 0 mm CLR
23:45 23.5 °C 20.3 °C 1016.5 hPa Calm     82% 0 mm CLR
23:50 23.4 °C 20.2 °C 1016.5 hPa Calm     82% 0 mm CLR
23:55 23.3 °C 20.1 °C 1016.5 hPa Calm     82% 0 mm CLR
Piedmont Bend
Compliments of Weather Underground - 2 mb